Home > Weather > Kobe > Past weeks

Flag for Japan Past Weather in Kobe, Japan — Yesterday and Last 2 Weeks

Now
68 °F

Sprinkles. Partly cloudy.


Feels Like: 68 °F
Forecast: 67 / 78 °F
Wind: 9 mph from North

Location: Kansai International Airport

Current Time: Jun 28, 2016 at 5:21:56 AM

Latest Report: Jun 28, 2016 at 4:30 AM


Visibility: N/A

Pressure: 29.77 "Hg

Humidity: 94%

Dew Point: 66 °F

Location of KobeLocation

Past Weather in Kobe — Graph

°F

Kobe Temperature Yesterday

Maximum temperature yesterday: 79 °F (at 10:30 AM)
Minimum temperature yesterday: 66 °F (at 10:30 PM)
Average temperature yesterday: 73 °F

High & Low Weather Summary for the Past Weeks

 TemperatureHumidityPressure
High84 °F (Jun 15, 12:30 PM)100% (Jun 13, 5:00 AM)29.98 "Hg (Jun 13, 5:00 AM)
Low66 °F (Jun 27, 10:30 PM)48% (Jun 18, 2:30 PM)29.42 "Hg (Jun 13, 4:30 AM)
Average75 °F82%29.72 "Hg
* Reported Jun 13 4:00 AM — Jun 28 4:00 AM, Kobe, Weather by CustomWeather, © 2016

Note: Actual official high and low records may vary slightly from our data, if they occured in-between our weather recording intervals... More about our weather records

Advertising

Kobe Weather History for the Previous 24 Hours

Scroll right to see more
 ConditionsComfort  
Time TempWeatherWind HumidityBarometerVisibility
4:00 AM
Tue, Jun 28
68 °FScattered showers. Partly cloudy.10 mph94%29.77 "HgN/A
3:30 AM68 °FSprinkles. Partly cloudy.12 mph94%29.74 "HgN/A
3:00 AM68 °FSprinkles. Passing clouds.13 mph94%29.74 "HgN/A
2:30 AM68 °FPassing clouds.12 mph94%29.74 "HgN/A
2:00 AM68 °FSprinkles. Partly cloudy.12 mph94%29.77 "HgN/A
1:30 AM68 °FSprinkles. Fog.12 mph94%29.77 "Hg3 mi
1:00 AM66 °FSprinkles. Partly cloudy.12 mph100%29.80 "Hg5 mi
12:30 AM66 °FSprinkles. Fog.13 mph100%29.80 "Hg3 mi
12:00 AM66 °FRain showers. Fog.13 mph94%29.83 "Hg2 mi
11:30 PM
Mon, Jun 27
66 °FRain showers. Fog.13 mph94%29.83 "Hg3 mi
11:00 PM66 °FRain showers. Fog.13 mph94%29.86 "Hg2 mi
10:45 PM66 °FRain showers. Fog.13 mph94%29.86 "Hg3 mi
10:30 PM66 °FRain showers. Partly cloudy.13 mph94%29.86 "Hg4 mi
10:00 PM68 °FSprinkles. Partly cloudy.10 mph88%29.86 "HgN/A
9:30 PM68 °FSprinkles. Mostly cloudy.7 mph88%29.86 "HgN/A
9:00 PM68 °FSprinkles. Mostly cloudy.3 mph83%29.89 "HgN/A
8:30 PM70 °FLight rain. Mostly cloudy.8 mph78%29.86 "HgN/A
8:00 PM70 °FLight rain. Mostly cloudy.12 mph78%29.89 "HgN/A
7:30 PM72 °FLight rain. Mostly cloudy.5 mph78%29.89 "HgN/A
7:00 PM72 °FLight rain. More clouds than sun.10 mph73%29.89 "HgN/A
6:30 PM75 °FLight rain. More clouds than sun.15 mph83%29.89 "HgN/A
6:00 PM75 °FLight rain. More clouds than sun.14 mph78%29.89 "HgN/A
5:30 PM77 °FLight rain. More clouds than sun.13 mph69%29.86 "HgN/A
5:00 PM77 °FLight rain. More clouds than sun.12 mph69%29.86 "HgN/A
4:30 PM77 °FBroken clouds.12 mph69%29.86 "HgN/A
4:00 PM77 °FBroken clouds.13 mph69%29.86 "HgN/A
3:30 PM77 °FPartly sunny.9 mph79%29.89 "HgN/A
3:00 PM79 °FPartly sunny.8 mph70%29.89 "HgN/A
2:00 PM79 °FPartly sunny.12 mph70%29.89 "HgN/A
1:00 PM79 °FMore clouds than sun.7 mph58%29.92 "HgN/A
12:30 PM79 °FOvercast.6 mph61%29.89 "HgN/A
12:00 PM79 °FPartly sunny.7 mph61%29.92 "HgN/A
11:30 AM79 °FPartly sunny.7 mph61%29.89 "HgN/A
11:00 AM79 °FPassing clouds.7 mph65%29.92 "HgN/A
10:30 AM79 °FPassing clouds.8 mph65%29.92 "Hg5 mi
10:00 AM77 °FPassing clouds.6 mph74%29.92 "Hg5 mi
9:30 AM77 °FPassing clouds.5 mph74%29.92 "Hg5 mi
9:00 AM75 °FPassing clouds.3 mph78%29.92 "Hg5 mi
8:30 AM75 °FPassing clouds.3 mph78%29.92 "HgN/A
8:00 AM73 °FPassing clouds.2 mph83%29.92 "HgN/A
7:30 AM73 °FPassing clouds.2 mph83%29.92 "HgN/A
7:00 AM72 °FPassing clouds.2 mph83%29.92 "HgN/A
6:30 AM72 °FPassing clouds.3 mph83%29.92 "HgN/A
6:00 AM70 °FSunny.2 mph88%29.92 "Hg10 mi
5:30 AM70 °FSunny.2 mph83%29.92 "Hg10 mi
5:00 AM70 °FPassing clouds.3 mph88%29.92 "HgN/A
Weather by CustomWeather, © 2016

See weather overviewHow to use our weather pages